Location: ??????
(38.3184°N, 23.6932°E)
Time: 17:35:18
(UTC+00:00)

Cosmos 1727 Rocket - Pass Details

Date: 29 May 2022
Orbit: 961 x 996 km, 82.9° (Epoch: 28 June)

Event Time Altitude Azimuth Distance (km) Brightness Sun altitude
Rises 02:22:13 0° 148° (SSE) 3,672 7.0 -7.9°
Reaches altitude 10° 02:25:12 10° 135° (SE) 2,734 6.5 -7.4°
Maximum altitude 02:30:02 24° 84° (E) 1,928 6.5 -6.7°
Drops below altitude 10° 02:34:53 10° 34° (NE) 2,763 7.7 -5.9°
Sets 02:37:54 0° 21° (NNE) 3,719 8.0 -5.4°
